User: anonymous   Login
Location: Oshawa
(43.9000°N, 78.8670°W)
Time: 16:41:13
(UTC-04:00)
Language:

Cosmos 1707 Rocket - Orbit

View from above orbital plane
View from above orbital plane
View from above satellite
View from above satellite

Ground track
Ground track

The orbit data is extracted from the following two-line orbital elements,

1 16327U 85113B   16212.56650012  .00000087  00000-0  77125-5 0  9996
2 16327  82.5331  33.0539 0018319 333.4484  84.2485 14.83304070654205
Epoch (UTC): 30 July 2016 13:35:45
Eccentricity: 0.0018319
inclination: 82.5331°
perigee height: 606 km
apogee height: 632 km
right ascension of ascending node: 33.0539°
argument of perigee: 333.4484°
revolutions per day: 14.83304070
mean anomaly at epoch: 84.2485°
orbit number at epoch: 65420

The dashed part of the orbit path shows where the satellite is in the earth's shadow,  

DLR